Weather in Uspenovka

Russia / Lipetsk Oblast     52°24′15″N   38°41′44″E
temp.,
°C
wind,
m/s
gust,
m/s
humid.,
%
clouds,
%
prec.,
mm/h
press.,
hPa
HPBL,
m
21 april, wed
wed2100:00+4ne4895100 2.7 1005413
03:00+4n3398100 7.6 1003231
06:00+3nw3497100 4.6 1004358
09:00+3wnw3597100 6.3 1007369
12:00+5w4785100 0.0 1009672
15:00+8wsw5773100 0.1 10111247
18:00+7sw2579100 0.0 1013304
21:00+6ssw248896 0.1 1014124
22 april, thu
thu2200:00+6sw369274 0.2 1015328
03:00+5wsw279394 0.3 1017386
06:00+4ssw35955 0.0 1018135
09:00+8ssw46735 0.0 1019509
12:00+12ssw5660100 0.0 10201199
15:00+14ssw575484 0.0 10191635
18:00+13s376184 0.1 1019268
21:00+11s3869100 0.1 1020171
23 april, fri
fri2300:00+9s367496 0.0 1019123
03:00+9sse4973100 0.0 1019202
06:00+9s3977100 0.0 1019203
09:00+13s586495 0.0 1019442
12:00+16s684774 0.4 10182370
15:00+15sse585364 0.4 10161401
18:00+14s485928 0.3 1015401
21:00+12sse51269100 0.3 1014394
24 april, sat
sat2400:00+11sse5127819 0.4 1012347
03:00+8s369076 0.8 1011117
06:00+8sse51291100 0.4 1009413
09:00+10s81380100 0.9 10071359
12:00+4w71195100 1.8 1010766
15:00+6w678287 2.0 1011801
18:00+5wsw5687100 1.4 1011600
21:00+4wsw5990100 1.6 1012324
25 april, sun
sun2500:00+3wsw498677 0.0 1012208
03:00+2wsw39885 0.0 1013207
06:00+1wsw410882 0.0 1013326
09:00+5wsw69675 0.0 10141073
12:00+8wsw685295 0.3 10131893
15:00+9wsw684895 1.5 10131921
18:00+7wsw5763100 1.1 10131187
21:00+5wsw497332 1.4 1014252